Weather History for Havre, MT

Change the Weather History Date:

Sunday, November 18, 2012

  Actual Average Record
Temperature  
Mean Temperature 34 °F 29 °F  
Max Temperature 45 °F 40 °F 69 °F (2008)
Min Temperature 22 °F 18 °F -29 °F (1903)
Degree Days  
Heating Degree Days 31 36  
Month to date heating degree days 606 576  
Since 1 July heating degree days 1533 1575  
Cooling Degree Days 0 0  
Month to date cooling degree days 0 0  
Year to date cooling degree days 507 387  
Moisture  
Dew Point 26 °F    
Average Humidity 75    
Maximum Humidity 92    
Minimum Humidity 57    
Precipitation  
Precipitation 0.00 in 0.01 in 0.40 in (1941)
Month to date precipitation 0.59 0.27  
Year to date precipitation 12.08 10.64  
Snow  
Snow 0.00 in 0.20 in 4.00 in (1942)
Month to date snowfall 11.5 2.8  
Since 1 July snowfall 13.0 5.1  
Since 1 September snowfall 13.0 5.1  
Snow Depth 2.00 in    
Sea Level Pressure  
Sea Level Pressure 29.83 in    
Wind  
Wind Speed 8 mph (SW)    
Max Wind Speed 22 mph    
Max Gust Speed 26 mph    
Visibility 10 miles    
Events      
T = Trace of Precipitation, MM = Missing Value Source: NWS Daily Summary

Daily Weather History Graph

Daily Weather History Graph

Search for Another Location

Airport:

Trip Planner

Search our weather history database for the weather conditions in past years. The results will help you decide how hot, cold, wet, or windy it might be!

Date:

Astronomy

Nov. 18, 2012 Rise Set
Actual Time 7:32 AM MST 4:35 PM MST
Civil Twilight 6:57 AM MST 5:10 PM MST
Nautical Twilight 6:19 AM MST 5:48 PM MST
Astronomical Twilight 5:42 AM MST 6:26 PM MST
Moon 11:56 AM MST (11/18) 10:06 PM MST (11/18)
Length of Visible Light 10h 12m
Length of Day
9h 03m
Waxing Crescent, 31% of the Moon is Illuminated
Nov 18
Waxing Crescent
Nov 20
First Quarter
Nov 28
Full
Dec 6
Last Quarter
Dec 13
New

Hourly Weather History & Observations

Time (MST) Temp. Windchill Dew Point Humidity Pressure Visibility Wind Dir Wind Speed Gust Speed Precip Events Conditions
12:53 AM 27.0 °F 21.6 °F 25.0 °F 92% 29.70 in 10.0 mi ENE 4.6 mph - N/A   Clear
1:53 AM 27.0 °F - 25.0 °F 92% 29.68 in 10.0 mi Calm Calm - N/A   Clear
2:53 AM 26.1 °F 21.9 °F 23.0 °F 88% 29.66 in 10.0 mi East 3.5 mph - N/A   Clear
3:53 AM 26.1 °F 19.4 °F 23.0 °F 88% 29.64 in 10.0 mi NW 5.8 mph - N/A   Clear
4:53 AM 21.9 °F - 19.9 °F 92% 29.65 in 10.0 mi Calm Calm - N/A   Clear
5:53 AM 24.1 °F 18.2 °F 21.0 °F 88% 29.63 in 10.0 mi ENE 4.6 mph - N/A   Clear
6:53 AM 28.0 °F 22.8 °F 24.1 °F 85% 29.62 in 10.0 mi ENE 4.6 mph - N/A   Clear
7:53 AM 25.0 °F - 21.9 °F 88% 29.68 in 10.0 mi Calm Calm - N/A   Clear
8:53 AM 39.0 °F 31.8 °F 30.9 °F 73% 29.72 in 10.0 mi WSW 11.5 mph 19.6 mph N/A   Mostly Cloudy
9:53 AM 42.1 °F 34.2 °F 33.1 °F 70% 29.73 in 10.0 mi SW 16.1 mph - N/A   Clear
10:53 AM 43.0 °F 36.4 °F 34.0 °F 71% 29.79 in 10.0 mi WSW 12.7 mph - N/A   Clear
11:53 AM 42.1 °F 33.9 °F 32.0 °F 67% 29.79 in 10.0 mi SW 17.3 mph - N/A   Clear
12:53 PM 41.0 °F 33.5 °F 30.9 °F 67% 29.82 in 10.0 mi SW 13.8 mph - N/A   Clear
1:53 PM 43.0 °F 36.0 °F 28.9 °F 58% 29.85 in 10.0 mi SW 13.8 mph - N/A   Clear
2:53 PM 44.1 °F 40.8 °F 30.0 °F 58% 29.89 in 10.0 mi SW 5.8 mph - N/A   Clear
3:53 PM 41.0 °F 35.8 °F 28.0 °F 60% 29.92 in 10.0 mi WSW 8.1 mph - N/A   Clear
4:53 PM 36.0 °F 31.1 °F 27.0 °F 70% 29.97 in 10.0 mi West 5.8 mph - N/A   Clear
5:53 PM 35.1 °F 29.3 °F 26.1 °F 70% 29.99 in 10.0 mi WSW 6.9 mph - N/A   Clear
6:53 PM 33.1 °F 27.7 °F 26.1 °F 75% 30.00 in 10.0 mi SSW 5.8 mph - N/A   Clear
7:53 PM 34.0 °F 28.0 °F 25.0 °F 70% 30.00 in 10.0 mi SSW 6.9 mph - N/A   Clear
8:53 PM 30.0 °F 22.4 °F 24.1 °F 79% 29.98 in 10.0 mi SSW 8.1 mph - N/A   Clear
9:53 PM 28.9 °F 19.2 °F 21.9 °F 75% 29.99 in 10.0 mi SW 11.5 mph - N/A   Clear
10:53 PM 28.9 °F 19.2 °F 23.0 °F 78% 30.00 in 10.0 mi SW 11.5 mph - N/A   Clear
11:53 PM 30.9 °F 22.8 °F 23.0 °F 72% 30.01 in 10.0 mi WSW 9.2 mph - N/A   Clear